GW3555 Weather Reports


Display with metric or nautical units.
time (UTC)temp
F
wind
direction
speed
MPH
gust
MPH
rain 1hr
in
rain 24hr
in
rain mn
in
humidity
%
barometer
mb
20260503021041 68 247 1.0 3.0 0.00 0.00 0.00 47 1015.2
20260503020530 68 240 1.0 2.0 0.00 0.00 0.00 44 1015.3
20260503020100 69 254 1.0 2.0 0.00 0.00 0.00 45 1015.2
20260503015525 69 254 1.0 2.0 0.00 0.00 0.00 46 1015.5
20260503015013 70 251 1.0 3.0 0.00 0.00 0.00 44 1015.6
20260503014617 71 250 1.0 3.0 0.00 0.00 0.00 41 1015.6
20260503014038 71 182 0.0 3.0 0.00 0.00 0.00 39 1015.7
20260503013542 71 217 1.0 4.0 0.00 0.00 0.00 38 1015.7
20260503013119 71 207 1.0 4.0 0.00 0.00 0.00 36 1015.9
20260503012530 71 46 0.0 4.0 0.00 0.00 0.00 37 1015.8
20260503012042 72 5 0.0 2.0 0.00 0.00 0.00 36 1015.5
20260503011623 72 100 0.0 3.0 0.00 0.00 0.00 36 1015.2
20260503011042 72 155 0.0 3.0 0.00 0.00 0.00 35 1015.3
20260503010524 72 169 1.0 4.0 0.00 0.00 0.00 33 1015.3
20260503010051 72 159 1.0 4.0 0.00 0.00 0.00 33 1015.5
20260503005525 72 189 1.0 3.0 0.00 0.00 0.00 33 1015.4
20260503005020 73 154 0.0 2.0 0.00 0.00 0.00 34 1015.5
20260503004551 73 180 0.0 4.0 0.00 0.00 0.00 33 1015.4
20260503004015 74 180 1.0 4.0 0.00 0.00 0.00 32 1015.5
20260503003519 74 184 1.0 4.0 0.00 0.00 0.00 33 1015.4
20260503003103 75 161 1.0 4.0 0.00 0.00 0.00 31 1015.5
20260503002520 75 180 0.0 4.0 0.00 0.00 0.00 32 1015.5
20260503002025 75 192 1.0 2.0 0.00 0.00 0.00 35 1015.6
20260503001616 75 82 0.0 2.0 0.00 0.00 0.00 34 1015.5
20260503001017 75 74 0.0 2.0 0.00 0.00 0.00 31 1015.6
20260503000526 75 24 0.0 3.0 0.00 0.00 0.00 31 1015.7
20260503000113 75 114 1.0 3.0 0.00 0.00 0.00 30 1015.8
20260502235524 76 193 0.0 4.0 0.00 0.00 0.00 30 1015.9
20260502235021 76 132 1.0 4.0 0.00 0.00 0.00 30 1016.0
20260502234626 76 176 1.0 8.0 0.00 0.00 0.00 30 1015.7
20260502234020 76 199 2.0 7.0 0.00 0.00 0.00 30 1015.7
20260502233521 75 136 1.0 5.0 0.00 0.00 0.00 31 1016.0
20260502233056 74 142 1.0 3.0 0.00 0.00 0.00 33 1015.9
20260502232534 74 166 0.0 3.0 0.00 0.00 0.00 41 1015.8
20260502232025 74 181 0.0 3.0 0.00 0.00 0.00 36 1015.9
20260502231618 74 110 0.0 2.0 0.00 0.00 0.00 37 1016.0
20260502231032 75 130 0.0 2.0 0.00 0.00 0.00 35 1016.0
20260502230525 75 158 0.0 3.0 0.00 0.00 0.00 35 1015.9
20260502230111 75 150 1.0 3.0 0.00 0.00 0.00 30 1015.8
20260502225517 76 350 0.0 2.0 0.00 0.00 0.00 29 1016.1
20260502225022 76 340 0.0 3.0 0.00 0.00 0.00 27 1016.1
20260502224615 76 352 0.0 3.0 0.00 0.00 0.00 28 1016.1
20260502224042 77 5 0.0 3.0 0.00 0.00 0.00 28 1016.2
20260502223542 77 64 0.0 3.0 0.00 0.00 0.00 27 1016.2
20260502223058 78 5 0.0 4.0 0.00 0.00 0.00 28 1016.4
20260502222531 79 55 1.0 6.0 0.00 0.00 0.00 26 1016.5
20260502222041 79 181 1.0 6.0 0.00 0.00 0.00 27 1016.4
20260502221611 79 215 2.0 6.0 0.00 0.00 0.00 25 1016.4
20260502221031 78 82 1.0 8.0 0.00 0.00 0.00 27 1016.5
20260502220537 78 188 2.0 9.0 0.00 0.00 0.00 28 1016.6
20260502220058 77 196 1.0 3.0 0.00 0.00 0.00 31 1016.4
20260502215532 76 107 1.0 2.0 0.00 0.00 0.00 28 1016.5
20260502215032 76 16 0.0 3.0 0.00 0.00 0.00 31 1016.7
20260502214601 76 70 1.0 3.0 0.00 0.00 0.00 30 1016.7
20260502214024 76 164 0.0 3.0 0.00 0.00 0.00 30 1016.7
20260502213531 76 119 0.0 3.0 0.00 0.00 0.00 29 1016.7
20260502213104 76 109 0.0 3.0 0.00 0.00 0.00 28 1016.8
20260502212531 76 127 0.0 2.0 0.00 0.00 0.00 27 1016.8
20260502212032 76 32 1.0 2.0 0.00 0.00 0.00 27 1016.8
20260502211620 76 14 0.0 2.0 0.00 0.00 0.00 25 1016.7
20260502211044 76 165 0.0 2.0 0.00 0.00 0.00 26 1016.7
20260502210525 76 177 0.0 1.0 0.00 0.00 0.00 30 1016.7
20260502210100 76 188 0.0 0.0 0.00 0.00 0.00 28 1016.7
20260502205527 75 188 0.0 1.0 0.00 0.00 0.00 28 1016.7
20260502205032 75 188 0.0 2.0 0.00 0.00 0.00 27 1016.8
20260502204612 75 187 1.0 2.0 0.00 0.00 0.00 26 1016.7
20260502204032 75 250 0.0 4.0 0.00 0.00 0.00 27 1017.0
20260502203545 75 299 0.0 4.0 0.00 0.00 0.00 26 1017.0
20260502203119 76 206 0.0 6.0 0.00 0.00 0.00 27 1017.2
20260502202516 77 192 1.0 6.0 0.00 0.00 0.00 27 1017.2
20260502202030 78 360 2.0 4.0 0.00 0.00 0.00 26 1017.2
20260502201624 77 280 1.0 4.0 0.00 0.00 0.00 26 1017.2
20260502201021 77 156 1.0 5.0 0.00 0.00 0.00 26 1017.3
20260502200521 78 333 3.0 5.0 0.00 0.00 0.00 25 1017.5
20260502200119 79 101 2.0 5.0 0.00 0.00 0.00 23 1017.4
20260502195538 79 34 1.0 5.0 0.00 0.00 0.00 25 1017.4
20260502195017 79 325 2.0 4.0 0.00 0.00 0.00 25 1017.4
20260502194623 78 293 1.0 6.0 0.00 0.00 0.00 24 1017.4
20260502194031 77 129 1.0 6.0 0.00 0.00 0.00 22 1017.5
20260502193540 77 48 0.0 6.0 0.00 0.00 0.00 26 1017.7
20260502193118 77 336 1.0 6.0 0.00 0.00 0.00 23 1017.7
20260502192518 77 350 1.0 4.0 0.00 0.00 0.00 25 1017.5
20260502192038 76 130 1.0 5.0 0.00 0.00 0.00 26 1017.7
20260502191617 76 346 3.0 5.0 0.00 0.00 0.00 25 1017.8
20260502191038 76 146 1.0 5.0 0.00 0.00 0.00 28 1017.6
20260502190514 75 24 0.0 4.0 0.00 0.00 0.00 31 1017.7
20260502190115 75 82 1.0 4.0 0.00 0.00 0.00 31 1017.7
20260502185532 74 342 1.0 4.0 0.00 0.00 0.00 33 1017.8
20260502185035 74 317 1.0 4.0 0.00 0.00 0.00 33 1018.1
20260502184622 73 284 1.0 5.0 0.00 0.00 0.00 34 1018.0
20260502184017 73 60 2.0 5.0 0.00 0.00 0.00 35 1018.1
20260502183545 73 246 2.0 4.0 0.00 0.00 0.00 38 1018.2
20260502183126 72 315 0.0 4.0 0.00 0.00 0.00 40 1018.1
20260502182520 70 219 0.0 3.0 0.00 0.00 0.00 42 1018.3
20260502182025 69 259 1.0 3.0 0.00 0.00 0.00 42 1018.1
20260502181558 68 142 1.0 3.0 0.00 0.00 0.00 44 1018.3
20260502181036 68 316 0.0 4.0 0.00 0.00 0.00 42 1018.4
20260502180532 68 67 0.0 4.0 0.00 0.00 0.00 45 1018.3
20260502180120 68 252 0.0 3.0 0.00 0.00 0.00 43 1018.3
20260502170519 65 67 1.0 3.0 0.00 0.00 0.00 48 1018.7
20260502164031 63 229 0.0 3.0 0.00 0.00 0.00 49 1018.8
20260502163517 63 294 0.0 2.0 0.00 0.00 0.00 52 1018.7
20260502163110 62 152 0.0 3.0 0.00 0.00 0.00 51 1018.7
20260502162519 62 149 0.0 3.0 0.00 0.00 0.00 51 1018.7
20260502162045 62 76 0.0 1.0 0.00 0.00 0.00 54 1018.7
20260502161626 61 24 0.0 1.0 0.00 0.00 0.00 54 1018.7
20260502161038 61 24 0.0 2.0 0.00 0.00 0.00 55 1018.6
20260502160536 61 21 0.0 2.0 0.00 0.00 0.00 55 1018.7
20260502160136 60 335 0.0 1.0 0.00 0.00 0.00 54 1018.5
20260502152035 56 15 0.0 2.0 0.00 0.00 0.00 63 1018.9
20260502151542 56 49 0.0 1.0 0.00 0.00 0.00 63 1018.9
20260502151041 56 49 0.0 2.0 0.00 0.00 0.00 65 1018.9
20260502150524 56 49 0.0 2.0 0.00 0.00 0.00 62 1018.9
20260502150110 55 82 0.0 1.0 0.00 0.00 0.00 59 1018.9
20260502130523 48 241 0.0 3.0 0.00 0.00 0.00 69 1018.2
20260502130110 49 245 2.0 4.0 0.00 0.00 0.00 69 1018.2
20260502123524 50 224 0.0 3.0 0.00 0.00 0.00 66 1018.3
20260502123128 50 265 0.0 4.0 0.00 0.00 0.00 66 1018.3
20260502122543 50 226 3.0 4.0 0.00 0.00 0.00 66 1018.2
20260502122027 50 252 2.0 4.0 0.00 0.00 0.00 65 1018.1
20260502121612 50 221 2.0 4.0 0.00 0.00 0.00 65 1018.1
20260502121028 50 225 2.0 4.0 0.00 0.00 0.00 66 1018.2
20260502120527 50 277 1.0 4.0 0.00 0.00 0.00 66 1018.1
20260502120137 51 236 2.0 4.0 0.00 0.00 0.00 65 1018.2
20260502115541 51 227 2.0 4.0 0.00 0.00 0.00 65 1018.2
20260502115021 51 217 2.0 4.0 0.00 0.00 0.00 65 1018.2
20260502114610 50 233 2.0 4.0 0.00 0.00 0.00 65 1018.2
20260502114023 50 244 3.0 4.0 0.00 0.00 0.00 65 1018.2
20260502113540 50 246 2.0 4.0 0.00 0.00 0.00 66 1018.2
20260502113132 50 248 2.0 4.0 0.00 0.00 0.00 64 1018.2
20260502112529 50 257 2.0 3.0 0.00 0.00 0.00 68 1018.0
20260502112036 51 246 1.0 3.0 0.00 0.00 0.00 64 1018.0
20260502111614 51 245 2.0 3.0 0.00 0.00 0.00 65 1018.3
20260502111031 51 242 1.0 3.0 0.00 0.00 0.00 65 1018.3
20260502110532 50 237 2.0 3.0 0.00 0.00 0.00 65 1018.3
20260502110106 50 282 1.0 4.0 0.00 0.00 0.00 67 1018.3
20260502105525 50 236 2.0 4.0 0.00 0.00 0.00 67 1018.2
20260502105042 50 261 2.0 3.0 0.00 0.00 0.00 66 1018.2
20260502104608 50 229 2.0 4.0 0.00 0.00 0.00 66 1018.2
20260502104026 49 243 2.0 4.0 0.00 0.00 0.00 67 1018.1
20260502103518 49 234 2.0 3.0 0.00 0.00 0.00 69 1018.1
20260502103105 49 256 0.0 3.0 0.00 0.00 0.00 69 1018.0
20260502102540 49 248 1.0 3.0 0.00 0.00 0.00 68 1018.0
20260502102032 49 247 2.0 3.0 0.00 0.00 0.00 68 1017.9
20260502101605 49 234 2.0 4.0 0.00 0.00 0.00 68 1017.9
20260502101043 49 243 2.0 4.0 0.00 0.00 0.00 68 1017.9
20260502100523 49 267 1.0 4.0 0.00 0.00 0.00 67 1017.8
20260502100123 50 240 2.0 4.0 0.00 0.00 0.00 67 1017.8
20260502091028 51 229 3.0 4.0 0.00 0.00 0.00 65 1017.7
20260502090520 51 250 2.0 4.0 0.00 0.00 0.00 64 1017.6
20260502071044 54 248 2.0 4.0 0.00 0.00 0.00 59 1017.5
20260502070541 54 236 2.0 4.0 0.00 0.00 0.00 58 1017.4
20260502070114 54 260 2.0 5.0 0.00 0.00 0.00 59 1017.4
20260502065549 54 236 3.0 5.0 0.00 0.00 0.00 59 1017.5
20260502065049 54 240 2.0 4.0 0.00 0.00 0.00 60 1017.4
20260502064614 55 245 2.0 3.0 0.00 0.00 0.00 59 1017.4
20260502064035 55 261 2.0 3.0 0.00 0.00 0.00 59 1017.5
20260502063512 55 236 2.0 4.0 0.00 0.00 0.00 59 1017.5
20260502063136 55 267 2.0 4.0 0.00 0.00 0.00 58 1017.5
20260502062523 55 254 1.0 4.0 0.00 0.00 0.00 60 1017.5
20260502062022 55 246 2.0 3.0 0.00 0.00 0.00 58 1017.3
20260502061559 55 237 2.0 3.0 0.00 0.00 0.00 58 1017.4
20260502061028 56 247 2.0 3.0 0.00 0.00 0.00 58 1017.4
20260502060518 56 236 2.0 4.0 0.00 0.00 0.00 57 1017.2
20260502060125 56 243 2.0 4.0 0.00 0.00 0.00 56 1017.3
20260502055541 56 242 2.0 4.0 0.00 0.00 0.00 55 1017.3
20260502055032 57 238 2.0 4.0 0.00 0.00 0.00 54 1017.1
20260502054615 57 269 2.0 5.0 0.00 0.00 0.00 53 1017.2
20260502054025 56 267 2.0 5.0 0.00 0.00 0.00 56 1017.3
20260502053603 56 263 3.0 4.0 0.00 0.00 0.00 55 1017.2
20260502053113 56 240 2.0 4.0 0.00 0.00 0.00 54 1017.2
20260502052526 56 238 2.0 4.0 0.00 0.00 0.00 57 1017.2
20260502052032 56 236 2.0 4.0 0.00 0.00 0.00 56 1017.2
20260502051600 56 238 2.0 4.0 0.00 0.00 0.00 56 1017.2
20260502051025 55 232 2.0 4.0 0.00 0.00 0.00 57 1017.2
20260502050537 56 250 2.0 5.0 0.00 0.00 0.00 56 1017.2
20260502050142 56 242 3.0 5.0 0.00 0.00 0.00 55 1017.2
20260502045537 56 235 2.0 4.0 0.00 0.00 0.00 54 1017.0
20260502045033 56 227 3.0 5.0 0.00 0.00 0.00 54 1016.9
20260502044615 56 229 3.0 5.0 0.00 0.00 0.00 54 1016.9
20260502044015 56 254 3.0 5.0 0.00 0.00 0.00 54 1017.0
20260502043517 56 242 3.0 5.0 0.00 0.00 0.00 53 1016.7
20260502043122 57 251 2.0 4.0 0.00 0.00 0.00 53 1016.8
20260502042522 57 246 2.0 5.0 0.00 0.00 0.00 53 1016.7
20260502042037 57 255 2.0 5.0 0.00 0.00 0.00 54 1016.6
20260502041625 57 244 2.0 4.0 0.00 0.00 0.00 53 1016.7
20260502041018 57 238 1.0 4.0 0.00 0.00 0.00 52 1016.5
20260502040524 58 233 2.0 4.0 0.00 0.00 0.00 52 1016.3
20260502040045 58 243 2.0 5.0 0.00 0.00 0.00 50 1016.3
20260502035536 58 229 3.0 5.0 0.00 0.00 0.00 51 1016.1
20260502035031 59 242 3.0 5.0 0.00 0.00 0.00 50 1016.0
20260502034555 60 230 3.0 5.0 0.00 0.00 0.00 49 1015.8
20260502034043 60 238 2.0 4.0 0.00 0.00 0.00 49 1015.7
20260502033535 59 234 2.0 4.0 0.00 0.00 0.00 48 1015.8
20260502033133 60 237 2.0 4.0 0.00 0.00 0.00 49 1015.8
20260502032533 61 229 2.0 4.0 0.00 0.00 0.00 48 1015.8
20260502032029 61 242 2.0 5.0 0.00 0.00 0.00 46 1015.7
20260502031610 63 241 3.0 5.0 0.00 0.00 0.00 45 1015.7
20260502031025 64 205 2.0 5.0 0.00 0.00 0.00 40 1015.5
20260502030547 65 238 3.0 8.0 0.00 0.00 0.00 39 1015.5
20260502030145 65 260 3.0 8.0 0.00 0.00 0.00 40 1015.5
20260502025541 64 254 0.0 2.0 0.00 0.00 0.00 41 1015.5
20260502025015 65 211 0.0 1.0 0.00 0.00 0.00 41 1015.3
20260502024637 65 209 0.0 0.0 0.00 0.00 0.00 41 1015.3
20260502024033 65 209 0.0 1.0 0.00 0.00 0.00 41 1015.5
20260502023532 65 209 0.0 1.0 0.00 0.00 0.00 42 1015.3
20260502023134 65 207 0.0 2.0 0.00 0.00 0.00 42 1015.4
20260502022533 66 199 0.0 2.0 0.00 0.00 0.00 41 1015.2
20260502022020 66 173 0.0 2.0 0.00 0.00 0.00 39 1015.3
20260502021626 67 165 0.0 1.0 0.00 0.00 0.00 38 1015.2